• In Österreich
  • Länderverzeichnis
  • Für 7 Tage
  • Wassertemperatur
  • Satellitenkarten
  • Wetterkarte
  • News
  • Widgets
  • user-avatar
    Anmelden

    Stündliche Wetter Benguela

    Heute, 16 Juli, Montag

    Zeit Temperatur Niederschläge Wind Luftdruck Luftfeuchtigkeit
    00:00 +23°C° 0 mm 2 m/S 761 mmHg 79%
    01:00 +23°C° 0 mm 2 m/S 761 mmHg 79%
    02:00 +23°C° 0 mm 2 m/S 761 mmHg 77%
    03:00 +23°C° 0 mm 2 m/S 761 mmHg 75%
    04:00 +23°C° 0 mm 2 m/S 761 mmHg 72%
    05:00 +23°C° 0 mm 2 m/S 761 mmHg 68%
    06:00 +23°C° 0 mm 2 m/S 761 mmHg 64%
    07:00 +23°C° 0 mm 2 m/S 761 mmHg 60%
    08:00 +26°C° 0 mm 2 m/S 761 mmHg 51%
    09:00 +29°C° 0 mm 2 m/S 762 mmHg 41%
    10:00 +32°C° 0 mm 2 m/S 762 mmHg 32%
    11:00 +35°C° 0 mm 3 m/S 761 mmHg 31%
    12:00 +36°C° 0 mm 3 m/S 761 mmHg 30%
    13:00 +37°C° 0 mm 4 m/S 760 mmHg 29%
    14:00 +36°C° 0 mm 4 m/S 760 mmHg 32%
    15:00 +35°C° 0 mm 4 m/S 759 mmHg 34%
    16:00 +35°C° 0 mm 5 m/S 759 mmHg 37%
    17:00 +32°C° 0 mm 4 m/S 759 mmHg 45%
    18:00 +29°C° 0 mm 4 m/S 760 mmHg 54%
    19:00 +27°C° 0 mm 3 m/S 760 mmHg 63%
    20:00 +26°C° 0 mm 3 m/S 761 mmHg 65%
    21:00 +25°C° 0 mm 3 m/S 761 mmHg 68%
    22:00 +25°C° 0 mm 2 m/S 762 mmHg 70%
    23:00 +25°C° 0 mm 2 m/S 762 mmHg 69%

    Morgen, 17 Juli, Dienstag

    Zeit Temperatur Niederschläge Wind Luftdruck Luftfeuchtigkeit
    00:00 +25°C° 0 mm 2 m/S 762 mmHg 68%
    01:00 +24°C° 0 mm 2 m/S 761 mmHg 67%
    02:00 +24°C° 0 mm 2 m/S 761 mmHg 64%
    03:00 +24°C° 0 mm 2 m/S 761 mmHg 62%
    04:00 +24°C° 0 mm 2 m/S 761 mmHg 59%
    05:00 +24°C° 0 mm 2 m/S 761 mmHg 57%
    06:00 +24°C° 0 mm 2 m/S 761 mmHg 55%
    07:00 +24°C° 0 mm 2 m/S 761 mmHg 52%
    08:00 +27°C° 0 mm 2 m/S 762 mmHg 46%
    09:00 +29°C° 0 mm 2 m/S 762 mmHg 39%
    10:00 +32°C° 0 mm 2 m/S 762 mmHg 33%
    11:00 +34°C° 0 mm 2 m/S 761 mmHg 33%
    12:00 +35°C° 0 mm 3 m/S 761 mmHg 33%
    13:00 +36°C° 0 mm 3 m/S 761 mmHg 33%
    14:00 +35°C° 0 mm 3 m/S 760 mmHg 36%
    15:00 +35°C° 0 mm 3 m/S 760 mmHg 39%
    16:00 +34°C° 0 mm 3 m/S 759 mmHg 42%
    17:00 +31°C° 0 mm 3 m/S 760 mmHg 52%
    18:00 +28°C° 0 mm 3 m/S 760 mmHg 62%
    19:00 +26°C° 0 mm 2 m/S 760 mmHg 72%
    20:00 +26°C° 0 mm 2 m/S 761 mmHg 74%
    21:00 +25°C° 0 mm 2 m/S 761 mmHg 76%
    22:00 +25°C° 0 mm 2 m/S 762 mmHg 78%
    23:00 +25°C° 0 mm 2 m/S 762 mmHg 77%

    übermorgen, 18 Juli, Mittwoch

    Zeit Temperatur Niederschläge Wind Luftdruck Luftfeuchtigkeit
    00:00 +24°C° 0 mm 2 m/S 762 mmHg 76%
    01:00 +24°C° 0 mm 2 m/S 762 mmHg 75%
    02:00 +24°C° 0 mm 2 m/S 761 mmHg 74%
    03:00 +24°C° 0 mm 2 m/S 761 mmHg 72%
    04:00 +24°C° 0 mm 3 m/S 761 mmHg 70%
    05:00 +24°C° 0 mm 2 m/S 761 mmHg 65%
    06:00 +24°C° 0 mm 2 m/S 761 mmHg 61%
    07:00 +24°C° 0 mm 1 m/S 762 mmHg 56%
    08:00 +27°C° 0 mm 2 m/S 762 mmHg 48%
    09:00 +30°C° 0 mm 2 m/S 762 mmHg 40%
    10:00 +34°C° 0 mm 3 m/S 762 mmHg 32%
    11:00 +35°C° 0 mm 3 m/S 762 mmHg 33%
    12:00 +36°C° 0 mm 3 m/S 761 mmHg 34%
    13:00 +36°C° 0 mm 3 m/S 760 mmHg 36%
    14:00 +35°C° 0 mm 3 m/S 760 mmHg 40%
    15:00 +34°C° 0 mm 3 m/S 759 mmHg 44%
    16:00 +33°C° 0 mm 4 m/S 759 mmHg 48%
    17:00 +30°C° 0 mm 3 m/S 760 mmHg 58%
    18:00 +28°C° 0 mm 3 m/S 760 mmHg 67%
    19:00 +26°C° 0 mm 3 m/S 761 mmHg 76%
    20:00 +25°C° 0 mm 3 m/S 761 mmHg 78%
    21:00 +25°C° 0 mm 2 m/S 762 mmHg 79%
    22:00 +25°C° 0 mm 2 m/S 762 mmHg 81%
    23:00 +24°C° 0 mm 2 m/S 762 mmHg 81%

    19 Juli, Donnerstag

    Zeit Temperatur Niederschläge Wind Luftdruck Luftfeuchtigkeit
    00:00 +24°C° 0 mm 2 m/S 761 mmHg 80%
    01:00 +24°C° 0 mm 2 m/S 761 mmHg 80%
    02:00 +24°C° 0 mm 2 m/S 761 mmHg 78%
    03:00 +24°C° 0 mm 2 m/S 761 mmHg 76%
    04:00 +24°C° 0 mm 2 m/S 760 mmHg 74%
    05:00 +24°C° 0 mm 2 m/S 761 mmHg 69%
    06:00 +24°C° 0 mm 2 m/S 761 mmHg 64%
    07:00 +24°C° 0 mm 1 m/S 761 mmHg 60%
    08:00 +27°C° 0 mm 1 m/S 761 mmHg 49%
    09:00 +30°C° 0 mm 2 m/S 761 mmHg 38%
    10:00 +34°C° 0 mm 2 m/S 761 mmHg 28%
    11:00 +35°C° 0 mm 2 m/S 761 mmHg 29%
    12:00 +36°C° 0 mm 3 m/S 760 mmHg 29%
    13:00 +37°C° 0 mm 3 m/S 759 mmHg 30%
    14:00 +36°C° 0 mm 3 m/S 759 mmHg 34%
    15:00 +35°C° 0 mm 3 m/S 758 mmHg 38%
    16:00 +34°C° 0 mm 3 m/S 758 mmHg 42%
    17:00 +31°C° 0 mm 3 m/S 758 mmHg 52%
    18:00 +29°C° 0 mm 3 m/S 759 mmHg 61%
    19:00 +26°C° 0 mm 2 m/S 760 mmHg 71%
    20:00 +26°C° 0 mm 2 m/S 760 mmHg 72%
    21:00 +26°C° 0 mm 2 m/S 761 mmHg 74%
    22:00 +25°C° 0 mm 2 m/S 761 mmHg 75%
    23:00 +25°C° 0 mm 2 m/S 761 mmHg 75%

    20 Juli, Freitag

    Zeit Temperatur Niederschläge Wind Luftdruck Luftfeuchtigkeit
    00:00 +25°C° 0 mm 2 m/S 761 mmHg 75%
    01:00 +25°C° 0 mm 2 m/S 760 mmHg 74%
    02:00 +24°C° 0 mm 2 m/S 760 mmHg 72%
    03:00 +24°C° 0 mm 2 m/S 760 mmHg 70%
    04:00 +24°C° 0 mm 2 m/S 760 mmHg 67%
    05:00 +24°C° 0 mm 1 m/S 760 mmHg 63%
    06:00 +24°C° 0 mm 1 m/S 760 mmHg 58%
    07:00 +24°C° 0 mm 1 m/S 761 mmHg 53%
    08:00 +27°C° 0 mm 2 m/S 761 mmHg 44%
    09:00 +30°C° 0 mm 2 m/S 761 mmHg 35%
    10:00 +34°C° 0 mm 2 m/S 761 mmHg 26%
    11:00 +35°C° 0 mm 3 m/S 760 mmHg 27%
    12:00 +36°C° 0 mm 3 m/S 759 mmHg 29%
    13:00 +37°C° 0 mm 4 m/S 759 mmHg 30%
    14:00 +36°C° 0 mm 3 m/S 758 mmHg 35%
    15:00 +35°C° 0 mm 3 m/S 758 mmHg 39%
    16:00 +34°C° 0 mm 3 m/S 757 mmHg 44%
    17:00 +30°C° 0 mm 3 m/S 758 mmHg 55%
    18:00 +28°C° 0 mm 2 m/S 759 mmHg 65%
    19:00 +26°C° 0 mm 2 m/S 759 mmHg 76%
    20:00 +25°C° 0 mm 1 m/S 760 mmHg 78%
    21:00 +25°C° 0 mm 1 m/S 760 mmHg 80%
    22:00 +24°C° 0 mm 1 m/S 760 mmHg 81%
    23:00 +24°C° 0 mm 1 m/S 760 mmHg 81%

    21 Juli, Samstag

    Zeit Temperatur Niederschläge Wind Luftdruck Luftfeuchtigkeit
    00:00 +24°C° 0 mm 1 m/S 760 mmHg 80%
    01:00 +24°C° 0 mm 1 m/S 760 mmHg 79%
    02:00 +24°C° 0 mm 1 m/S 760 mmHg 78%
    03:00 +24°C° 0 mm 1 m/S 760 mmHg 76%
    04:00 +24°C° 0 mm 1 m/S 760 mmHg 75%
    05:00 +23°C° 0 mm 1 m/S 760 mmHg 73%
    06:00 +23°C° 0 mm 1 m/S 761 mmHg 72%
    07:00 +23°C° 0 mm 1 m/S 761 mmHg 71%
    08:00 +26°C° 0 mm 1 m/S 761 mmHg 61%
    09:00 +29°C° 0 mm 1 m/S 761 mmHg 52%
    10:00 +32°C° 0 mm 2 m/S 762 mmHg 42%
    11:00 +32°C° 0 mm 2 m/S 761 mmHg 42%
    12:00 +34°C° 0 mm 3 m/S 761 mmHg 42%
    13:00 +35°C° 0 mm 4 m/S 760 mmHg 42%
    14:00 +34°C° 0 mm 3 m/S 760 mmHg 47%
    15:00 +31°C° 0 mm 3 m/S 760 mmHg 52%
    16:00 +30°C° 0 mm 3 m/S 759 mmHg 57%
    17:00 +29°C° 0 mm 2 m/S 760 mmHg 66%
    18:00 +27°C° 0 mm 2 m/S 760 mmHg 74%
    19:00 +25°C° 0 mm 2 m/S 761 mmHg 83%
    20:00 +24°C° 0 mm 2 m/S 762 mmHg 85%
    21:00 +24°C° 0 mm 2 m/S 762 mmHg 86%
    22:00 +24°C° 0 mm 2 m/S 762 mmHg 87%
    23:00 +23°C° 0 mm 2 m/S 762 mmHg 87%
    Mehr zeigen